CUTE-1 (CO-55) 1 27844U 03031E 25296.00479069 .00000536 00000+0 25169-3 0 9990 2 27844 98.6784 302.5582 0010148 148.8132 211.3650 14.24115538157910 CUBESAT XI-IV (CO-57) 1 27848U 03031J 25295.94682331 .00000463 00000+0 22307-3 0 9994 2 27848 98.6813 302.4028 0009726 165.9103 194.2348 14.23433127157626 CUBESAT XI-V 1 28895U 05043F 25296.13096575 .00003087 00000+0 50414-3 0 9998 2 28895 98.2691 82.3757 0013523 235.0335 124.9602 14.71586475 66875 CUTE-1.7+APD II (CO-65) 1 32785U 08021C 25296.16170323 .00008152 00000+0 56096-3 0 9997 2 32785 97.8017 268.5850 0011414 109.3857 250.8604 15.06114125949471 CANX-2 1 32790U 08021H 25296.18385294 .00006528 00000+0 48811-3 0 9991 2 32790 97.8387 267.1841 0013203 117.8340 242.4225 15.03052437949178 SEEDS II (CO-66) 1 32791U 08021J 25296.08519355 .00021804 00000+0 93189-3 0 9990 2 32791 97.7413 279.5913 0006240 73.9322 286.2601 15.22858790951084 SWISSCUBE 1 35932U 09051B 25296.18835212 .00001989 00000+0 40877-3 0 9996 2 35932 98.4137 194.8703 0005693 224.0352 136.0395 14.61732021854527 BEESAT-1 1 35933U 09051C 25296.15080542 .00001806 00000+0 37736-3 0 9990 2 35933 98.4072 194.9402 0004025 239.6609 120.4193 14.61085519854568 ITUPSAT1 1 35935U 09051E 25296.14312794 .00001663 00000+0 35764-3 0 9998 2 35935 98.4163 194.3577 0006221 253.1668 106.8849 14.59856936854140 TISAT 1 1 36799U 10035E 25295.89548451 .00022721 00000+0 10300-2 0 9999 2 36799 98.0549 218.6716 0004046 38.6429 321.5094 15.20851746831508 AEROCUBE 4.5A 1 38767U 12048K 25296.01300834 .00047599 00000+0 97679-3 0 9993 2 38767 64.6422 131.5807 0083347 242.2642 117.0023 15.42018061335631 STRAND-1 1 39090U 13009E 25296.04782616 .00000586 00000+0 21243-3 0 9995 2 39090 98.3845 117.2371 0007984 214.0722 145.9953 14.36939022663008 BRITE-AUSTRIA 1 39091U 13009F 25296.03308941 .00000375 00000+0 14249-3 0 9994 2 39091 98.3908 116.4585 0009356 223.9611 136.0832 14.36391352663003 NEE-01 PEGASO 1 39151U 13018B 25296.05956148 .00005698 00000+0 56978-3 0 9999 2 39151 98.0924 68.1646 0012360 220.8530 139.1762 14.91811507675325 POPACS 1 1 39268U 13055D 25295.98228431 .00116521 29265-5 62916-3 0 9994 2 39268 80.9605 277.3321 0163775 227.9920 130.7295 15.63180965635604 POPACS 2 1 39269U 13055E 25296.06162530 .00030678 00000+0 57915-3 0 9993 2 39269 80.9980 53.7242 0457661 230.4572 125.5359 14.80530568627982 POPACS 3 1 39270U 13055F 25295.26464861 .00011660 00000+0 28601-3 0 9998 2 39270 81.0000 126.1428 0573944 71.9713 294.3135 14.50676004603993 ZACUBE-1 (TSHEPISOSAT) 1 39417U 13066B 25295.84883920 .00008451 00000+0 70309-3 0 9994 2 39417 97.7988 252.3734 0041526 322.9433 36.8923 14.98266315645151 WNISAT-1 1 39423U 13066H 25295.99915338 .00001868 00000+0 35224-3 0 9998 2 39423 97.6907 97.5345 0163378 258.9293 99.3496 14.57413774632172 TRITON-1 1 39427U 13066M 25296.21380200 .00004930 00000+0 61343-3 0 9996 2 39427 97.8288 206.5525 0091169 286.4245 72.6961 14.80041813639011 GOMX-1 1 39430U 13066Q 25296.13643913 .00002635 00000+0 40772-3 0 9997 2 39430 97.6649 146.4259 0132296 117.9668 243.5001 14.68262492635119 CUBEBUG-2 (LO-74) 1 39440U 13066AA 25295.95571764 .00005665 00000+0 55542-3 0 9998 2 39440 97.8629 239.7480 0062516 92.7814 268.0562 14.91160817641601 NEE-02 KRYSAOR 1 39441U 13066AB 25295.91608777 .00003711 00000+0 42183-3 0 9997 2 39441 97.8656 232.3749 0069298 126.3744 234.3891 14.85129733640963 FUNCUBE-1 (AO-73) 1 39444U 13066AE 25296.13694737 .00012172 00000+0 85389-3 0 9992 2 39444 97.7983 258.8617 0037849 290.0136 69.7016 15.04740912643957 UWE-3 1 39446U 13066AG 25295.94393757 .00008893 00000+0 81072-3 0 9990 2 39446 97.8395 246.3143 0052937 31.7879 328.6518 14.94277529642110 BRITE-CA1 (TORONTO) 1 40020U 14033L 25296.06913097 .00001627 00000+0 25518-3 0 9995 2 40020 97.9451 64.9391 0078650 316.7125 42.7919 14.71986524607323 DUCHIFAT-1 1 40021U 14033M 25296.03308787 .00039616 00000+0 11315-2 0 9995 2 40021 98.0861 322.7407 0007016 187.8638 172.2495 15.35885151619054 NANOSATC-BR1 1 40024U 14033Q 25296.08571177 .00020360 00000+0 88331-3 0 9997 2 40024 98.0931 303.8100 0002168 309.0218 51.0823 15.22385664617798 QB50P1 1 40025U 14033R 25296.05197902 .00013767 00000+0 78062-3 0 9998 2 40025 98.0950 286.4902 0008413 328.0654 32.0064 15.13083595617109 QB50P2 1 40032U 14033Y 25295.49663917 .00011651 00000+0 70892-3 0 9990 2 40032 98.0587 273.6066 0005999 263.8865 96.1680 15.10588834616723 PERSEUS-M2 1 40037U 14033AD 25296.13056153 .00003639 00000+0 34338-3 0 9997 2 40037 97.9677 237.4586 0012547 14.2251 345.9320 14.94358439615367 PERSEUS-M1 1 40039U 14033AF 25295.78178525 .00004117 00000+0 38739-3 0 9998 2 40039 97.9385 231.5895 0012328 14.2523 345.9042 14.94388046615168 POLYITAN-1 1 40042U 14033AJ 25296.07241469 .00023598 00000+0 99992-3 0 9995 2 40042 98.1094 296.5244 0006333 247.9424 112.1139 15.23138306617376 TIGRISAT 1 40043U 14033AK 25296.06217163 .00004015 00000+0 48028-3 0 9996 2 40043 97.7533 87.1911 0051568 131.5146 229.0511 14.83744766610445 AEROCUBE 6A 1 40045U 14033AM 25295.97356016 .00008612 00000+0 79329-3 0 9993 2 40045 97.7041 101.3611 0042246 88.9749 271.6311 14.94261141611146 AEROCUBE 6B 1 40046U 14033AN 25296.05902769 .00009662 00000+0 86200-3 0 9998 2 40046 97.7015 100.7890 0040680 81.5794 279.0035 14.95530389611261 CANX-4 1 40055U 14034C 25296.13842972 .00001915 00000+0 25679-3 0 9993 2 40055 98.3420 157.3537 0014091 55.6059 304.6482 14.80579154609442 CANX-5 1 40056U 14034D 25296.13950594 .00001914 00000+0 25659-3 0 9991 2 40056 98.3423 157.3845 0014088 55.8153 304.4391 14.80594714600257 UKUBE-1 1 40074U 14037F 25296.19069324 .00014451 00000+0 93703-3 0 9997 2 40074 98.4101 270.6995 0001324 112.4384 247.6982 15.08224318612765 BRITE-PL2 (HEWELIUSZ) 1 40119U 14049B 25296.01528071 .00003189 00000+0 30962-3 0 9994 2 40119 97.8982 41.6464 0014575 171.8338 188.3121 14.93280099606032 AEROCUBE 5C 1 40965U 15058B 25296.14456611 .00003182 00000+0 28782-3 0 9998 2 40965 64.7672 279.0970 0144466 154.7695 206.0567 14.89659442330323 AEROCUBE 7 1 40966U 15058C 25296.16821419 .00004604 00000+0 38085-3 0 9990 2 40966 64.7627 265.9331 0135218 154.6102 206.1739 14.93273651330530 FOX-1A (AO-85) 1 40967U 15058D 25296.11339060 .00003164 00000+0 29268-3 0 9995 2 40967 64.7750 294.7950 0140953 148.9601 211.9937 14.89172308 78240 SINOD-D 1 1 40968U 15058E 25296.16942263 .00004607 00000+0 38531-3 0 9992 2 40968 64.7751 279.8339 0129709 147.4745 213.4447 14.93378887 81237 SNAP-3 ALICE 1 40970U 15058G 25296.11122586 .00040550 00000+0 13756-2 0 9996 2 40970 64.7621 181.6277 0057011 147.8042 212.6591 15.28731643 80329 LMRST-SAT 1 40971U 15058H 25296.14549182 .00003042 00000+0 28258-3 0 9994 2 40971 64.7754 290.6109 0143524 150.6239 210.3039 14.88843775 78242 SNAP-3 EDDIE 1 40972U 15058J 25296.11601797 .00041821 00000+0 13825-2 0 9993 2 40972 64.7541 173.7054 0061179 150.5933 209.8664 15.29310648 82440 PROPCUBE 3 1 40973U 15058K 25296.13084257 .00004080 00000+0 34848-3 0 9997 2 40973 64.7683 272.0535 0137297 152.7426 208.0981 14.92064867 79404 BISONSAT 1 40974U 15058L 25296.14861618 .00015007 00000+0 84949-3 0 9991 2 40974 64.7625 216.3009 0096225 150.2187 210.4461 15.09323809 79751 SNAP-3 JIMI 1 40975U 15058M 25296.15541674 .00006917 00000+0 50464-3 0 9995 2 40975 64.7659 247.8918 0120482 151.5344 209.2425 14.98774613 78653 PROPCUBE 1 (FLORA) 1 40976U 15058N 25296.15650684 .00003052 00000+0 29356-3 0 9991 2 40976 64.7747 308.9830 0142926 152.6489 208.2242 14.87552714 80982 SINOD-D 3 1 40977U 15058P 25296.11075067 .00004282 00000+0 37400-3 0 9999 2 40977 64.7721 294.9018 0131863 151.7177 209.1179 14.91664335 79366 HORYU-4 1 41340U 16012D 25296.18821021 .00049314 00000+0 10028-2 0 9992 2 41340 30.9956 295.5554 0003140 60.5878 299.5083 15.45026634533714 RAVAN 1 41849U 16067B 25296.14629461 .00031461 00000+0 90920-3 0 9990 2 41849 98.0236 156.6717 0009319 114.3217 245.8999 15.35549373491106 CELTEE 1 1 41850U 16067C 25296.06725866 .00008271 00000+0 43057-3 0 9991 2 41850 98.0929 141.5462 0001360 39.8789 320.2541 15.16309531489905 OPTICUBE 04 1 41851U 16067D 25296.08513448 .00004475 00000+0 29384-3 0 9994 2 41851 98.0874 130.8985 0015658 194.6439 165.4337 15.08102422489412 AEROCUBE 8D 1 41852U 16067E 25296.13646654 .00011737 00000+0 55085-3 0 9993 2 41852 98.0954 143.5575 0002662 219.7243 140.3796 15.19822270490001 AEROCUBE 8C 1 41853U 16067F 25296.06323801 .00011267 00000+0 52614-3 0 9995 2 41853 98.0813 141.0421 0006241 147.8509 212.3105 15.19994345489984 PROMETHEUS 2-1 1 41854U 16067G 25296.14782757 .00222969 00000+0 17162-2 0 9995 2 41854 98.0480 166.9709 0006822 105.2406 254.9610 15.71302357491495 PROMETHEUS 2-3 1 41855U 16067H 25296.09432161 .00204819 00000+0 15726-2 0 9999 2 41855 98.0400 165.9334 0006237 106.4276 253.7671 15.71419815491480 CORVUS BC2 1 42846U 17042X 25296.02164579 .00006686 00000+0 48583-3 0 9992 2 42846 97.3828 102.2876 0013395 199.9722 160.0982 15.04092985451389 CORVUS BC1 1 42847U 17042Y 25295.98386799 .00005400 00000+0 39078-3 0 9999 2 42847 97.3874 102.8941 0012553 171.5088 188.6353 15.04340266451405 MIRATA 1 43015U 17073C 25295.74909601 .05433602 25221-5 18783-2 0 9999 2 43015 97.4940 199.5142 0007707 264.9287 95.1125 16.25329859431931 MAKERSAT 0 1 43016U 17073D 25296.10042200 .00026690 00000+0 95390-3 0 9996 2 43016 97.4940 173.1866 0135702 29.9676 330.9238 15.20417647430291 SIRION PATHFINDER-2 1 43759U 18099B 25296.11491562 .00006891 00000+0 41037-3 0 9999 2 43759 97.4612 345.7971 0010381 47.0871 313.1228 15.11477018376770 CORVUS BC4 1 43767U 18099K 25296.09020119 .00006814 00000+0 42511-3 0 9994 2 43767 97.4423 340.9434 0010319 98.1197 262.1203 15.09782364376595 SPACEBEE-7 1 43816U 18099BL 25296.13389664 .00076685 00000+0 14432-2 0 9990 2 43816 97.4802 9.7019 0003931 344.2507 15.8620 15.48267925377672 SHIELDS 1 1 43850U 18104B 25296.03569838 .00077556 00000+0 54948-3 0 9992 2 43850 85.0059 300.4351 0003369 36.4310 323.7189 15.73699143382658 DUCHIFAT-3 1 44854U 19089C 25296.13015483 .00202129 00000+0 17093-2 0 9998 2 44854 36.9337 203.6319 0009994 277.9897 81.9732 15.68120063324115 M2 PATHFINDER 1 45727U 20037E 25296.05945741 .00004722 00000+0 35467-3 0 9998 2 45727 97.8157 119.8191 0011322 230.8796 129.1422 15.03053438289853 NETSAT-4 1 46504U 20068U 25296.06626215 .00021780 00000+0 65248-3 0 9992 2 46504 97.8575 281.9976 0009514 86.5811 273.6519 15.34490417279292 NETSAT-3 1 46505U 20068V 25296.19098241 .00023562 00000+0 73906-3 0 9999 2 46505 97.8592 280.7548 0009094 96.3452 263.8825 15.33017342279255 NETSAT-1 1 46506U 20068W 25296.18008351 .00017704 00000+0 66497-3 0 9990 2 46506 97.8632 277.4975 0008579 109.5856 250.6308 15.27223303279035 NETSAT-2 1 46507U 20068X 25296.07510664 .00024145 00000+0 72060-3 0 9994 2 46507 97.8584 281.4522 0007789 106.8050 253.4047 15.34602404279237 WILDTRACKCUBE-SIMBA 1 47941U 21022K 25296.22738994 .00080228 00000+0 10986-2 0 9995 2 47941 97.4068 204.5997 0008880 148.2018 211.9775 15.57086556254208 GREENCUBE (IO-117) 1 53109U 22080E 25296.15000483 -.00000003 00000+0 00000+0 0 9997 2 53109 70.1630 20.6685 0008650 339.9001 20.1317 6.42583470 76835 SITRO-AIS 5 (KATYS) 1 57176U 23091L 25295.94876619 .00014622 00000+0 62754-3 0 9995 2 57176 97.5421 353.2344 0012470 211.9839 148.0642 15.22749689128152 SITRO-AIS 6 (CHIRKIN) 1 57192U 23091AC 25295.95747255 .00008309 00000+0 36678-3 0 9998 2 57192 97.5421 353.2007 0012155 210.4900 149.5630 15.21950708128157 SITRO-AIS 8 (ANOKHIN) 1 57193U 23091AD 25295.97770022 .00017976 00000+0 73351-3 0 9998 2 57193 97.5417 354.0719 0011842 210.2311 149.8244 15.24417096128210 SITRO-AIS 7 (FARTUSHNIY) 1 57194U 23091AE 25295.98929181 .00008100 00000+0 35925-3 0 9996 2 57194 97.5419 353.1473 0011915 211.5617 148.4905 15.21796839128158 SITRO-AIS 10 (BURDAEV) 1 57199U 23091AK 25295.96623593 .00022337 00000+0 80687-3 0 9990 2 57199 97.5429 357.1572 0008396 187.7234 172.3878 15.28456423128408 SITRO-AIS 9 (SHCHUKIN) 1 57201U 23091AM 25295.93664800 .00022025 00000+0 80165-3 0 9992 2 57201 97.5428 356.9937 0008376 188.8032 171.3062 15.28210191128391 SITRO-AIS 12 (SMIRENNIY) 1 57204U 23091AQ 25295.96593230 .00021096 00000+0 76282-3 0 9998 2 57204 97.5436 357.3650 0008408 181.6706 178.4507 15.28434652128410 SITRO-AIS 11 (SHEFFER) 1 57208U 23091AU 25295.96470322 .00021526 00000+0 77258-3 0 9990 2 57208 97.5436 357.4960 0008312 181.7372 178.3840 15.28675612128426 ROBUSTA-1E (ENSO) 1 58470U 23185J 25295.07210078 .00430002 70884-4 14830-2 0 9999 2 58470 97.3516 16.4799 0006278 272.5244 87.5310 15.89509478106087 SITRO-AIS 25 1 59066U 24039R 25296.13917916 .00007201 00000+0 58694-3 0 9999 2 59066 95.3921 72.4288 0153528 75.7560 286.0661 14.90769229 89377 SITRO-AIS 26 1 59067U 24039S 25296.17878506 .00006641 00000+0 54384-3 0 9994 2 59067 95.3919 72.3961 0153591 75.9465 285.8778 14.90609434 89375 SITRO-AIS 27 1 59068U 24039T 25296.21050631 .00007056 00000+0 57318-3 0 9992 2 59068 95.3922 72.5899 0152961 74.9572 286.8522 14.90961633 89392 SITRO-AIS 28 1 59071U 24039U 25296.19389763 .00007225 00000+0 58654-3 0 9996 2 59071 95.3921 72.6129 0152750 74.9102 286.8965 14.91002058 89396 GRBBETA 1 60237U 24128C 25296.16958538 .00005097 00000+0 36894-3 0 9997 2 60237 61.9912 326.3671 0057021 85.8312 274.9293 15.04036125 70581 OOV-CUBE (TUBSAT-30) 1 60240U 24128F 25296.06356075 .00003080 00000+0 24669-3 0 9995 2 60240 61.9962 331.5111 0058663 83.3707 277.4056 15.01155941 70491 ROBUSTA-3A (MEDITERRAN*) 1 60243U 24128J 25295.46288109 .00008792 00000+0 57737-3 0 9990 2 60243 61.9881 326.1621 0056657 79.6565 281.0908 15.06964762 70537 LASARSAT 1 62391U 24247Q 25295.97047087 .00027648 00000+0 90568-3 0 9992 2 62391 44.9773 140.1122 0005023 158.7299 201.3795 15.31218286 46777 CROCUBE 1 62394U 24247T 25295.93874356 .00027411 00000+0 88535-3 0 9997 2 62394 44.9743 139.8243 0006294 162.8580 197.2518 15.31669607 46779